FREGAT R/B, 42710

Orbit data source: Space-Track

FREGAT R/B, 42710 is space debris in HEO originally from a launch on Thu, 18 May 2017 UTC launched from the French Guiana (FRGUI). Debris objects in space refer to the collection of defunct objects orbiting the Earth. Examples of debris include non-operational satellites, rocket bodies, and fragments generated from explosions, collisions, or faulty payload assembly.

Loading next visibility...
Identifier
42710, 2017-026B
Orbit
HEO
Country
Flag of CISCIS
Related business
Manufacturer
Lavochkin
Mission
Spacecraft
Bus & Motor
FREGAT, Unknown motor
Mass
1,000 kg wet, 1,000 kg dry
Launch date (UTC)
2017-05-18 (8 years ago)
Launch vehicle
Unknown
Launch site
French Guiana (FRGUI)
Object type
Payload
Rocket body
Debris
Shape & HBR
Irr, 1.7 m
Radar Cross Section
12.110 m², Large (>1 m²)

Expand to show TLE details & history
Last TLE update: 10 hours ago

TLE from 10 hours ago
0 FREGAT R/B
1 42710U 17026B   25308.43443486 -.00000118  00000-0  00000-0 0  9995
2 42710   6.4519  52.3917 6240145 167.0835 222.4854  2.45438096 75932
Epoch: 2025-11-04T10:25Z
TLE epoch observation values (Epoch: 2025-11-04T10:25:35.171Z)
Latitude
-0.00002°
Longitude
-147.94109°
Altitude
29,823.384 km
Speed
2.203 km/s
True Right ascension
03h 29m 30s
True Declination
0° 00' 00"
Sunlit
Object was in daylight at epoch
Visualization orbit readout
Latitude
Unknown
Longitude
Unknown
Altitude
Unknown
Speed
Unknown
Apparent Right ascension
Unknown
Apparent Declination
Unknown
Sunlit
N/A
Visualization observer readout
Local Sidereal Time
16:23:36
Azimuth
Unknown
Elevation
Unknown
Doppler factor
Unknown
Orbital elements
Apogee altitude
31,330.167 km
Perigee altitude
2,351.942 km
Semi-major axis
23,219.192 km
Eccentricity
0.62401
Inclination
6.4519°
RAAN
52.3917°
Arg. of periapsis
167.0835°
True anomaly
192.93831°
Mean anomaly
222.4854°
Eccentric anomaly
206.52073°
Mean motion
0.61344 °/min
Orbital period
586.85 mins
BSTAR
0
Loading maneuver chart data...
Computing Atmospheric mass density...
Loading historical data...
Loading historical data...
Loading historical data...
Loading historical data...
Loading historical data...
Loading historical data...
Loading historical data...
Other satellites on launch #26 in the year 2017 (2017-05-18 UTC)

Documentation

Showing up to 5 results
|